sat.trackr.live / text

‹ back to catalog

ONEWEB-0060

NORAD 45455 · 2020-020AH

PAYLOAD ACTIVE UNKNOWN

§ Identity

Operator
Country
UK
Launch date
2020-03-21
Launch site
TYMSC
Launch vehicle
Mass (kg)
RCS (m²)

Purposes: comms

External: N2YO · Heavens-Above · Gunter

§ Orbital elements

Epoch: 2026-05-25T03:09:08.659008Z

Period
109.81 min
Inclination
87.8908°
Eccentricity
0.0002342
Mean motion
13.11414361 rev/d
Perigee alt
1,215.9 km
Apogee alt
1,219.5 km
Semi-major
7,595.8 km
B*
7.0307e-4
RAAN
25.6537°
Arg perigee
57.4931°
Mean anomaly
302.6423°
Rev number
29,952

§ Raw data

ONEWEB-00601 45455U 20020AH  26145.13135022  .00000262  00000+0  70307-3 0  99912 45455  87.8908  25.6537 0002342  57.4931 302.6423 13.11414361299525

JSON: /api/v1/satellites/45455 · /tle

For live sub-satellite position, see the globe view (requires WebGL).

§ Visibility from observer

Set your observer location to see the next 7 days of passes ≥ 10°. The values pass through the URL so the page stays shareable.

No JS? Fill the form by hand. The geolocation button needs JavaScript.